Regional Weather Roundup
Issued by NWS Charleston, SC

Current Version | Previous Version | Graphics & Text | Print | Product List | Glossary On
Versions: 1 2 3 4 5 6 7 8 9 10 11 12 13 14 15 16 17 18 19 20 21 22 23 24 25 26 27 28 29 30 31 32 33 34 35 36 37 38 39 40 41 42 43 44 45 46 47 48 49 50
000 ASUS42 KCHS 301427 RWRCHS REGIONAL WEATHER ROUNDUP NATIONAL WEATHER SERVICE CHARLESTON SC 1000 AM EDT THU MAR 30 2017 NOTE: "FAIR" INDICATES FEW OR NO CLOUDS BELOW 12,000 FEET WITH NO SIGNIFICANT WEATHER AND/OR OBSTRUCTIONS TO VISIBILITY. NOT ALL STATIONS ARE QUALITY CONTROLLED. USE DATA WITH CAUTION... ESPECIALLY DEWPOINT OBSERVATIONS. SCZ027-030-031-034>040-042>050-301500- ...SOUTHEAST SOUTH CAROLINA... CITY SKY/WX TMP DP RH WIND PRES REMARKS N CHARLESTON PTSUNNY 74 63 68 E13 30.06R WATERFRONT PRK N/A 70 66 87 E10 30.04S JOHNS ISLAND CLOUDY 70 66 88 E9 30.06R PINOPOLIS N/A 66 63 88 E6 29.98R MONCKS CORNER FAIR 72 63 73 SE8 30.06F SUMMERVILLE FAIR 72 63 73 E5 30.06F BEAUFORT MCAS MOSUNNY 74 68 81 VRB6 30.03F BEAUFORT ARPT FAIR 73 66 78 E6 30.03F HAZE HILTON HEAD IS MOSUNNY 70 66 88 NE9 30.04 WALTERBORO MOSUNNY 73 64 73 E8 30.05F ALLENDALE CLOUDY 73 66 78 E7 30.03S ...SOUTHERN MIDLANDS AND PEE DEE... CITY SKY/WX TMP DP RH WIND PRES REMARKS GEORGETOWN CLOUDY 68 59 73 E12 30.11R KINGSTREE PTSUNNY 68 55 64 E12 30.08F ORANGEBURG CLOUDY 70 62 76 SE9 30.06F BARNWELL CLOUDY 73 66 78 E10 30.04S AIKEN CLOUDY 66 63 88 SE8 30.08R MANNING PTSUNNY 70 59 68 SE7 30.07F COLUMBIA CLOUDY 68 60 75 SE10 30.05F SUMTER CLOUDY 67 58 72 SE9 30.05F FLORENCE CLOUDY 66 56 70 SE14 30.09F MYRTLE BEACH SUNNY 64 55 72 E14 30.11S N MYRTLE BEACH SUNNY 65 55 70 E15G21 30.11S $$ GAZ063-065-086>088-099>101-113>116-118-119-134>141-150-301500- ...SOUTHEAST GEORGIA... CITY SKY/WX TMP DP RH WIND PRES REMARKS SAVANNAH ARPT MOSUNNY 74 66 76 SE7 30.02F HUNTER AAF SUNNY 74 73 96 CALM 30.00F FORT STEWART PTSUNNY 71 66 83 E6 30.00S STATESBORO CLOUDY 73 71 94 S7 30.03R SYLVANIA CLOUDY N/A N/A N/A SE7 30.04S CLAXTON RAIN N/A N/A N/A E6 30.02S ...CSRA...CENTRAL AND FAR SOUTHEAST GEORGIA... CITY SKY/WX TMP DP RH WIND PRES REMARKS THOMSON CLOUDY 70 63 80 SW6 30.08R AUGUSTA-BUSH CLOUDY 72 65 78 SE8 30.02S AUGUSTA-DANIEL CLOUDY 71 62 73 SE7 30.03F SWAINSBORO CLOUDY 68 63 83 SE5 30.04R VIDALIA CLOUDY 70 63 78 SE3 30.03R EASTMAN FAIR 72 58 62 CALM 30.04S HAZLEHURST FAIR 72 67 85 CALM 30.01R ALMA CLOUDY 70 64 81 CALM 30.01R WAYCROSS SUNNY 76 65 70 CALM 30.01S JESUP CLOUDY 73 64 73 CALM 30.02R BAXLEY CLOUDY 72 70 94 S3 30.01S BRUNSWICK PTSUNNY 73 68 83 SE3 30.02R SAINT SIMONS PTSUNNY 73 64 73 SE9 30.00F $$ SCZ027-028-034-036>038-045-046-048>050-GAZ119-141-301500- ...LAKE AND SUPPLEMENTAL COASTAL OBSERVATIONS... STATION/POSITION TIME TEMP WIND PRES WAVE SWELL AIR SEA DIR/SP/G HT/PER HT/PER/DIR (UTC) (F) (DEG/KT/KT) (MB) (FT/S) (FT/S/D) WINYAH BAY 1345 63 60/ 12 1019.0S LAKE MURRAY 1330 65 110/ 9/ 13 1017.3S ACE BASIN NERRS 1330 73 70/ 2 1017.0S FORT PULASKI 1400 67 67 90/ 7/ 8 1017.0 SAPELO ISLAND 1400 72 100/ 6 1016.0 $$ ANZ835-935-AMZ111-154-330-350-352-354-370-450-454-472-301500- ...C-MAN AND BUOY OBSERVATIONS... STATION/POSITION TIME TEMP WIND PRES WAVE SWELL AIR SEA DIR/SP/G HT/PER HT/PER/DIR (UTC) (F) (DEG/KT/KT) (MB) (FT/S) (FT/S/D) BUOY 41004 1350 72 70 90/ 16/ 17 1017.1R 5/ 9 3/ 90/ 9 BUOY 41008 1350 67 65 100/ 6/ 8 1016.0F 2/10 2/120/10 FOLLY BEACH CMAN 1400 66 100/ 7/ 7 1018.4R CAPERS NEARSHORE NOT AVBL FRIPP NEARSHORE 1408 66 63 60/ 4/ 8 1016.6F STATION/POSITION TIME TEMP WIND PRES WAVE SWELL AIR SEA DIR/SP/G HT/PER HT/PER/DIR (UTC) (F) (DEG/KT/KT) (MB) (FT/S) (FT/S/D) 5E ST. MARYS GA 1400 68 N/A 3/10 2/100/11 FRYING PAN BUOY 1410 70 75 90/ 14/ 17 1019.3 BUOY 41025 1350 62 77 40/ 14/ 17 1021.4R 7/ 9 5/ 70/ 9 CAPE LOOKOUT NC 1400 60 40/ 16/ 17 1021.1R BUOY 41002 1350 68 72 80/ 10/ 12 1019.4R 6/10 5/ 90/10 BUOY 41010 NOT AVBL ST AUGUSTINE FL 1400 69 67 160/ 10/ 11 1017.1R $$

USA.gov is the U.S. government's official web portal to all federal, state and local government web resources and services.